Location: Unspecified
(0.0000°N, 0.0000°E)
Time: 05:53:59
(UTC+00:00)

Envisat - Pass Details

Date: 06 August 2020
Orbit: 764 x 766 km, 98.1° (Epoch: 13 August)

Event Time Altitude Azimuth Distance (km) Brightness Sun altitude
Rises 18:49:50 0° 201° (SSW) 3,230 6.3 -10.5°
Reaches altitude 10° 18:53:07 10° 223° (SW) 2,301 5.8 -11.3°
Maximum altitude 18:55:56 15° 257° (WSW) 1,970 6.1 -12.0°
Drops below altitude 10° 18:58:45 10° 292° (WNW) 2,295 7.0 -12.7°
Sets 19:02:02 0° 314° (NW) 3,217 7.4 -13.5°
